Location: Newport
(44.6370°N, 124.0520°W)
Time: 02:01:16
(UTC-08:00)

Vanguard 3 - All Passes

Search period start: 19 February 2018 00:00
Search period end: 01 March 2018 00:00
Orbit: 508 x 3264 km, 33.3° (Epoch: 18 February)

Date Brightness Start Highest point End Pass type
(mag) Time Alt. Az. Time Alt. Az. Time Alt. Az.
19 Feb - 15:30:00 10° S 15:30:22 10° SSE 15:30:44 10° SSE daylight
19 Feb - 17:38:47 10° SW 17:41:08 16° S 17:43:30 10° SE daylight
19 Feb - 19:50:03 10° SW 19:51:54 13° S 19:53:58 10° SSE visible
20 Feb - 16:25:36 10° SSW 16:28:00 15° S 16:30:12 10° SE daylight
20 Feb - 18:36:36 10° SW 18:38:42 14° S 18:40:55 10° SSE visible
21 Feb - 15:12:17 10° SSW 15:14:46 14° S 15:16:55 10° SE daylight
21 Feb - 17:23:07 10° SW 17:25:34 16° S 17:27:56 10° SE daylight
22 Feb - 13:59:09 10° S 14:01:22 12° SSE 14:03:17 10° SE daylight
22 Feb - 16:09:24 10° SW 16:12:26 17° S 16:15:03 10° SE daylight
22 Feb - 18:21:24 10° SW 18:23:06 13° SSW 18:24:50 10° SSE visible
23 Feb - 14:55:27 10° SW 14:59:12 18° S 15:02:09 10° SE daylight
23 Feb - 17:07:21 10° SW 17:10:00 16° S 17:12:24 10° SSE daylight
24 Feb - 13:41:25 10° SSW 13:45:44 17° S 13:49:04 10° SE daylight
24 Feb - 15:53:09 10° SW 15:56:52 20° S 15:59:51 10° SE daylight
24 Feb - 18:06:16 10° SW 18:07:28 11° SSW 18:08:39 10° S daylight
25 Feb - 12:27:40 10° SSW 12:32:01 14° SSE 12:35:28 10° SE daylight
25 Feb - 14:38:42 10° SW 14:43:36 22° S 14:47:10 10° SE daylight
25 Feb - 16:51:29 10° SW 16:54:24 17° SSW 16:56:56 10° SSE daylight
26 Feb - 11:15:11 10° S 11:18:00 11° SSE 11:20:28 10° SE daylight
26 Feb - 13:24:05 10° SW 13:30:05 21° S 13:34:19 10° ESE daylight
26 Feb - 15:36:51 10° WSW 15:41:17 22° S 15:44:37 10° SE daylight
26 Feb - 17:51:34 10° SSW 17:51:48 10° SSW 17:52:01 10° SSW daylight
27 Feb - 12:09:32 10° SSW 12:16:15 19° SSE 12:21:04 10° ESE daylight
27 Feb - 14:21:57 10° SW 14:27:58 26° S 14:32:05 10° SE daylight
27 Feb - 16:35:31 10° WSW 16:38:46 17° SSW 16:41:28 10° SSE daylight
28 Feb - 10:55:35 10° S 11:02:06 16° SSE 11:07:05 10° ESE daylight
28 Feb - 13:06:49 10° SW 13:14:22 27° S 13:19:20 10° ESE daylight
28 Feb - 15:20:28 10° WSW 15:25:40 25° S 15:29:21 10° SE daylight
